Weather History for Casper, WY

Change the Weather History Date:

Monday, June 10, 2013

  Actual Average Record
Temperature  
Mean Temperature 75 °F 60 °F  
Max Temperature 91 °F 76 °F 94 °F (1988)
Min Temperature 59 °F 44 °F 32 °F (1940)
Degree Days  
Heating Degree Days 0 6  
Month to date heating degree days 59 70  
Since 1 June heating degree days 59 70  
Since 1 July heating degree days 7258 7514  
Cooling Degree Days 10 1  
Month to date cooling degree days 12 9  
Year to date cooling degree days 22 13  
Since 1 June cooling degree days 12 9  
Growing Degree Days 26 (Base 50)    
Moisture  
Dew Point 40 °F    
Average Humidity 35    
Maximum Humidity 55    
Minimum Humidity 15    
Precipitation  
Precipitation T in 0.06 in 1.22 in (1969)
Month to date precipitation 0.13 0.61  
Year to date precipitation 6.10 5.82  
Snow  
Snow 0.00 in 0.00 in - ()
Month to date snowfall 0.0 0.1  
Since 1 June snowfall 0.0 0.1  
Since 1 July snowfall 85.7 74.9  
Snow Depth 0.00 in    
Sea Level Pressure  
Sea Level Pressure 29.68 in    
Wind  
Wind Speed 9 mph (WNW)    
Max Wind Speed 24 mph    
Max Gust Speed 36 mph    
Visibility 10 miles    
Events Thunderstorm    
T = Trace of Precipitation, MM = Missing Value Source: NWS Daily Summary

Daily Weather History Graph

Daily Weather History Graph

Search for Another Location

Airport:

Trip Planner

Search our weather history database for the weather conditions in past years. The results will help you decide how hot, cold, wet, or windy it might be!

Date:

Astronomy

Jun. 10, 2013 Rise Set
Actual Time 5:26 AM MDT 8:44 PM MDT
Civil Twilight 4:51 AM MDT 9:19 PM MDT
Nautical Twilight 4:06 AM MDT 10:04 PM MDT
Astronomical Twilight 3:11 AM MDT 11:00 PM MDT
Moon 7:20 AM MDT (6/10) 10:10 PM MDT (6/10)
Length of Visible Light 16h 27m
Length of Day
15h 17m
Waxing Crescent, 4% of the Moon is Illuminated
Jun 10
Waxing Crescent
Jun 16
First Quarter
Jun 23
Full
Jun 29
Last Quarter
Jul 8
New

Hourly Weather History & Observations

Time (MDT) Temp. Dew Point Humidity Pressure Visibility Wind Dir Wind Speed Gust Speed Precip Events Conditions
12:53 AM 64.0 °F 33.1 °F 31% 29.67 in 10.0 mi WSW 10.4 mph - N/A   Clear
1:53 AM 62.1 °F 33.1 °F 34% 29.66 in 10.0 mi WSW 11.5 mph - N/A   Clear
2:53 AM 64.9 °F 33.1 °F 31% 29.64 in 10.0 mi SW 13.8 mph - N/A   Clear
3:53 AM 64.0 °F 34.0 °F 33% 29.63 in 10.0 mi SW 10.4 mph - N/A   Clear
4:53 AM 66.0 °F 33.1 °F 29% 29.64 in 10.0 mi SW 10.4 mph - N/A   Clear
5:53 AM 62.1 °F 35.1 °F 37% 29.67 in 10.0 mi West 5.8 mph - N/A   Clear
6:53 AM 66.0 °F 37.0 °F 34% 29.66 in 10.0 mi WSW 10.4 mph - N/A   Clear
7:53 AM 69.1 °F 43.0 °F 39% 29.71 in 10.0 mi North 6.9 mph - N/A   Clear
8:53 AM 71.1 °F 46.0 °F 41% 29.72 in 10.0 mi NNE 11.5 mph - N/A   Clear
9:53 AM 73.0 °F 45.0 °F 37% 29.76 in 10.0 mi NNE 9.2 mph - N/A   Clear
10:53 AM - - N/A% 29.94 in - North - - N/A   Unknown
11:53 AM 81.0 °F 42.1 °F 25% 29.70 in 10.0 mi Calm Calm - N/A   Clear
12:53 PM 84.9 °F 44.1 °F 24% 29.66 in 10.0 mi Variable 5.8 mph - N/A   Clear
1:53 PM 89.1 °F 41.0 °F 19% 29.63 in 10.0 mi Variable 4.6 mph - N/A   Clear
2:53 PM 84.0 °F 46.9 °F 27% 29.62 in 10.0 mi NNW 6.9 mph - 0.00 in   Scattered Clouds
3:13 PM 86.0 °F 37.4 °F 18% 29.86 in 10.0 mi SW 8.1 mph 18.4 mph N/A Thunderstorm Scattered Clouds
3:53 PM 87.1 °F 34.0 °F 15% 29.61 in 10.0 mi WNW 18.4 mph 28.8 mph N/A   Partly Cloudy
4:29 PM 89.6 °F 44.6 °F 21% 29.84 in 10.0 mi NNE 19.6 mph 28.8 mph N/A   Clear
4:53 PM 87.1 °F 42.1 °F 21% 29.60 in 10.0 mi NE 10.4 mph - N/A   Clear
5:53 PM 84.9 °F 34.0 °F 16% 29.64 in 10.0 mi SW 11.5 mph 18.4 mph N/A   Mostly Cloudy
6:53 PM 89.1 °F 37.0 °F 16% 29.59 in 10.0 mi North 4.6 mph - N/A   Clear
7:53 PM 75.9 °F 46.9 °F 36% 29.65 in 10.0 mi North 8.1 mph - N/A   Clear
8:53 PM 73.9 °F 43.0 °F 33% 29.65 in 10.0 mi ENE 11.5 mph 19.6 mph N/A   Clear
9:53 PM 75.0 °F 43.0 °F 32% 29.65 in 10.0 mi East 9.2 mph - N/A   Clear
10:53 PM 71.1 °F 46.9 °F 42% 29.85 in 10.0 mi ESE 9.2 mph - N/A   Clear
11:53 PM 68.0 °F 51.1 °F 55% 29.63 in 10.0 mi South 3.5 mph - N/A   Clear